Retour au catalogue

COSMOS 2251 DEB

ActifLEO
NORAD 35759·DEBRIS·🇷🇺 Russia

Lancé Jun 16, 1993 depuis Plesetsk Cosmodrome

Loading…

Prochains Passages (prochaines 24 heures)

TLE

FraisSource: Space-Track

Époque: Sep 13, 2026, 02:25 UTC

1 35759U 93036ARD 26256.10089344  .00000933  00000-0  17048-3 0  9998
2 35759  74.0357  48.0345 0074852  97.4938 263.4743 14.65632672701545

Suivez COSMOS 2251 DEB en temps réel avec AllMySat

Download on the App Store